User: anonymous   Login
Location: ?nandapuram
(16.5396°N, 81.1430°E)
Time: 00:35:05
(UTC+00:00)
Language:

Cosmos 1939 Rocket - Orbit

View from above orbital plane
View from above orbital plane
View from above satellite
View from above satellite

Ground track
Ground track

The orbit is defined by the following mean orbital elements,

1 19046U          26159.49219404 +.00000000 +00000-0 +20480-3 0 00006
2 19046  97.5253 142.5423 0023652 277.7052  82.1498 15.20775920    02
Epoch (UTC): 08 June 2026 11:48:45
Eccentricity: 0.0023652
inclination: 97.5253°
perigee height: 487 km
apogee height: 520 km
right ascension of ascending node: 142.5423°
argument of perigee: 277.7052°
revolutions per day: 15.20775920
mean anomaly at epoch: 82.1498°

The dashed part of the orbit path shows where the satellite is in the earth's shadow,  

DLR